Weather Roundup
Issued by NWS

Home | Current Version | Previous Version | Text Only | Print | Product List | Glossary On
Versions: 1 2 3 4 5 6 7 8 9 10 11 12 13 14 15 16 17 18 19 20 21 22 23 24 25 26 27 28 29 30 31 32 33 34 35 36 37 38 39 40 41 42 43 44 45 46 47 48 49 50
000
NZUS93 KARX 220810
HRRWXR

CURRENT HOURLY OBSERVATIONS ACROSS
MUCH OF THE UPPER MISSISSIPPI VALLEY
NATIONAL WEATHER SERVICE LA CROSSE WI
300 AM CDT MON SEP 22 2014


...SOUTHEAST MINNESOTA...


CITY           SKY/WX    TMP DP  RH WIND       PRES   REMARKS
ROCHESTER      CLEAR     47  45  93 W8        30.24S
ROCHESTER/MAYO FAIR      50  45  83 CALM      30.24S
WINONA         CLEAR     46  45  93 CALM      30.22S
AUSTIN         CLEAR     46  45  93 CALM      30.25R
ALBERT LEA     CLEAR     48  48 100 CALM      30.25F
DODGE CENTER   PTCLDY    45  43  93 W3        30.24S
PRESTON        CLEAR     46  47 100 NW5       30.23F
OWATONNA         N/A     45  43  93 CALM      30.24F FOG
FARIBAULT      CLEAR     48  43  81 CALM      30.24F
$$

...ELSEWHERE IN MINNESOTA...


CITY           SKY/WX    TMP DP  RH WIND       PRES   REMARKS
MINNEAPOLIS    CLEAR     52  48  86 SW3       30.22F
INTNL FALLS    CLEAR     42  41  96 SW3       30.14S
DULUTH         MOCLDY    49  45  86 W7        30.17F
RED WING       CLEAR     45  43  93 CALM      30.22S
REDWOOD FALLS  CLEAR     47  46  97 CALM      30.25S
MANKATO        CLEAR     48  43  81 W3        30.24F
WORTHINGTON    CLEAR     41  39  93 CALM      30.27F
FAIRMONT       CLEAR     45  39  81 W5        30.26S
$$

...SOUTHWEST WISCONSIN...


CITY           SKY/WX    TMP DP  RH WIND       PRES   REMARKS
LA CROSSE      CLEAR     47  45  93 SE6       30.22S
PRAIRIE DU CHI CLEAR     45  43  95 E3        30.23S
BOSCOBEL       FOG       46  45  96 S3        30.24R VSB 1/4
LONE ROCK      CLEAR     45  39  79 W3        30.22S
PLATTEVILLE    CLEAR     43  42  96 NW3       30.23S
FORT MC COY    CLEAR     37  36  99 CALM      30.23S
CAMP DOUGLAS   FOG       36  36 100 W2        30.21R VSB 1
VIROQUA        FAIR      42  42 100 CALM      30.22S
WIS DELLS      CLEAR     40  38  94 CALM      30.21S
$$

...ELSEWHERE IN WISCONSIN...


CITY           SKY/WX    TMP DP  RH WIND       PRES   REMARKS
MILWAUKEE      CLEAR     46  39  76 NW5       30.18F
MADISON        CLEAR     42  39  89 CALM      30.19F
GREEN BAY      CLEAR     39  38  96 W5        30.17S
EAU CLAIRE     CLEAR     45  43  93 SW3       30.20S
BLACK RVR FLS  FOG       36  36 100 CALM      30.21S VSB<1/4
MEDFORD        CLEAR     39  38  96 CALM      30.19S
WAUSAU         CLEAR     41  39  93 NW5       30.17S
WIS RAPIDS     CLEAR     38  37  97 CALM      30.21S
MARSHFIELD     CLEAR     42  39  89 W6        30.20R
RICE LAKE      PTCLDY    42  41  97 CALM      30.21F
$$

...NORTHEAST IOWA...


CITY           SKY/WX    TMP DP  RH WIND       PRES   REMARKS
WATERLOO       CLEAR     45  44  97 CALM      30.24R
DUBUQUE        CLEAR     45  42  89 NE3       30.22S
DECORAH        CLEAR     45  43  93 CALM      30.23S
MASON CITY     CLEAR     47  46  97 N3        30.27S
CHARLES CITY   CLEAR     45  45 100 NW6       30.25S
OELWEIN        CLEAR     43  41  93 CALM      30.24S
$$

...ELSEWHERE IN IOWA...


CITY           SKY/WX    TMP DP  RH WIND       PRES   REMARKS
DES MOINES     CLEAR     52  47  83 N3        30.26S
IOWA CITY        N/A     47  45  93 CALM      30.25R
FORT DODGE     MOCLDY    45  43  93 CALM      30.27S VSB 1/2
MARSHALLTOWN   CLEAR     44  43  96 W6        30.25S
CEDAR RAPIDS   CLEAR     45  44  97 NW7       30.23R
$$

...NORTHERN ILLINOIS...


CITY           SKY/WX    TMP DP  RH WIND       PRES   REMARKS
CHICAGO-OHARE  PTCLDY    49  42  77 N8        30.18R
DUPAGE         CLEAR     44  41  89 N6        30.18R
CHICAGO-MIDWAY PTCLDY    51  45  79 NW7       30.17R
MOLINE         CLEAR     48  44  86 CALM      30.22R
ROCKFORD       CLEAR     47  42  83 NE3       30.22S
STERLING       CLEAR     48  43  81 NE5       30.21R
PEORIA         CLEAR     52  47  83 CALM      30.19S
$$

NOTE: "FAIR" INDICATES FEW OR NO CLOUDS BELOW 12,000 FEET WITH NO
SIGNIFICANT WEATHER AND/OR OBSTRUCTIONS TO VISIBILITY. WIND
SPEEDS ARE IN MILES-PER-HOUR.



USA.gov is the U.S. government's official web portal to all federal, state and local government web resources and services.